Weather Roundup
Issued by NWS Chicago, IL

Home | Current Version | Previous Version | Text Only | Print | Product List | Glossary Off
Versions: 1 2 3 4 5 6 7 8 9 10 11 12 13 14 15 16 17 18 19 20 21 22 23 24 25 26 27 28 29 30 31 32 33 34 35 36 37 38 39 40 41 42 43 44 45 46 47 48 49 50

555
NZUS59 KLOT 212009
HRRLOT

CHICAGO AREA WEATHER ROUNDUP
NATIONAL WEATHER SERVICE CHICAGO/ROMEOVILLE IL
300 PM CDT MON AUG 21 2017

NOTE: "FAIR" INDICATES FEW OR NO CLOUDS BELOW 12,000 FEET WITH NO
SIGNIFICANT WEATHER AND/OR OBSTRUCTIONS TO VISIBILITY.

* THESE STATIONS ARE NOT UNDER NWS QUALITY CONTROL. THEY ALSO MAY NOT
  REPORT WEATHER SUCH AS PRECIPITATION OR FOG.

ILZ005-006-012>014-019>023-212100-
NORTHEAST ILLINOIS

CITY           SKY/WX    TMP DP  RH WIND       PRES   REMARKS
OHARE          CLOUDY    83  70  64 E10       29.97F HX  87
MIDWAY         CLOUDY    85  71  63 VRB5      29.98F HX  90
AURORA         CLOUDY    79  74  84 SE8       30.00F HX  82
LANSING*       PTSUNNY   82  70  66 CALM      30.01S HX  86
JOLIET*        CLOUDY    81  74  79 SE3       30.01S HX  87
WAUKEGAN       CLOUDY    78  72  81 E5        29.98F HX  80
DUPAGE AIRPORT PTSUNNY   79  74  84 SE7       29.98F HAZE    HX  82
WHEELING       CLOUDY    81  74  79 SE6       29.99F HX  86
MORRIS*        CLOUDY    78  73  84 SE5       30.00F HX  81
LEWIS AIRPORT* CLOUDY    81  71  73 SE6       30.01S HX  85
NORTHERLY ISL    N/A     80  71  74 NE7         N/A  HX  84
$$

WIZ051-052-058>065-066-070>072-212100-
SOUTHEAST WISCONSIN

CITY           SKY/WX    TMP DP  RH WIND       PRES   REMARKS
MILWAUKEE      CLOUDY    79  71  76 SE13      29.98F HX  82
KENOSHA*       PTSUNNY   78  71  79 SE7       30.00F HX  80
RACINE*        PTSUNNY   77  72  84 S9        30.01S
WEST BEND      CLOUDY    79  70  73 SE7       29.97F HX  81
$$

INZ001>003-010>013-019-020-212100-
NORTHWEST INDIANA

CITY           SKY/WX    TMP DP  RH WIND       PRES   REMARKS
GARY*          CLOUDY    82  72  69 NE10      30.01F HX  87
MICHIGAN CITY* NOT AVBL
RENSSELAER*    NOT AVBL
VALPARAISO     CLOUDY    83  73  72 SE7       30.02F HX  89
$$

LMZ740>746-212100-
SOUTHERN LAKE MICHIGAN

STATION/POSITION TIME  SKY/WX   TEMP WIND        PRES    VSBY
                                AIR  DIR/SP/G
                 (UTC)          (F)  (DEG/KT/KT) (MB)    (MI)
HARRISON CRIB    1940            77   90/ 10/ 11   N/A
BURNHAM HARBOR   NOT AVBL
CALUMET HARBOR   1942            81   40/  5/  6 1015.3F
BURNS HARBOR     1940            79   50/  7/ 14 1016.3F
MICHIGAN CITY    1940            77   40/ 10/ 10   N/A
$$

ABBREVIATIONS USED IN REMARKS
   TC - TEMPERATURE IN CELSIUS
  WCI - WIND CHILL INDEX
   HX - HEAT INDEX
  VSB - VISIBILITY
$$




USA.gov is the U.S. government's official web portal to all federal, state and local government web resources and services.